• MPC Preparation (Info)

  • MPEC 2016-N128: 2014 OG392

    The following Minor Planet Electronic Circular may be linked-to from your own Web pages, but must not otherwise be redistributed electronically.

    A form allowing access to any MPEC is at the bottom of this page.


    Read MPEC 2016-N127 Read MPEC 2016-N129


    M.P.E.C. 2016-N128                               Issued 2016 July 15, 03:38 UT
    
         The Minor Planet Electronic Circulars contain information on unusual
             minor planets and routine data on comets.  They are published
        on behalf of Division F of the International Astronomical Union by the
              Minor Planet Center, Smithsonian Astrophysical Observatory,
                              Cambridge, MA 02138, U.S.A.
    
                 Prepared using the Tamkin Foundation Computer Network
    
                                  MPC@CFA.HARVARD.EDU
                URL https://www.minorplanetcenter.net/    ISSN 1523-6714
    
                                      2014 OG392
    
    Additional Observations:
         K14Od2G  C2013 07 12.48412 20 46 51.132-14 50 53.75         21.8 wLEN128F51
         K14Od2G  C2013 07 12.48544 20 46 51.131-14 50 53.48         21.4 wLEN128F51
         K14Od2G  C2013 07 12.49909 20 46 50.937-14 50 54.73         21.6 wLEN128F51
         K14Od2G  C2013 07 12.50041 20 46 50.910-14 50 54.74         21.7 wLEN128F51
         K14Od2G  C2013 07 12.51406 20 46 50.723-14 50 55.62         21.7 wLEN128F51
         K14Od2G  C2013 07 12.51538 20 46 50.707-14 50 55.80         21.6 wLEN128F51
         K14Od2G  C2013 07 12.52905 20 46 50.511-14 50 56.66         21.7 wLEN128F51
         K14Od2G  C2013 07 12.53038 20 46 50.495-14 50 56.66         21.8 wLEN128F51
         K14Od2G  C2015 06 25.55262 22 11 11.900-11 17 40.95         21.6 wLEN128F51
         K14Od2G  C2015 06 25.56377 22 11 11.850-11 17 41.29         21.5 wLEN128F51
         K14Od2G  C2015 06 25.57492 22 11 11.796-11 17 41.80         21.6 wLEN128F51
         K14Od2G  C2015 06 25.58610 22 11 11.740-11 17 42.34         21.4 wLEN128F51
         K14Od2G  C2015 07 12.50026 22 09 15.348-11 33 30.75         21.5 wLEN128F51
         K14Od2G  C2015 07 12.51048 22 09 15.246-11 33 31.51         21.5 wLEN128F51
         K14Od2G  C2015 07 12.52163 22 09 15.141-11 33 32.30         21.6 wLEN128F51
         K14Od2G  C2015 07 12.53278 22 09 15.027-11 33 33.10         21.5 wLEN128F51
         K14Od2G  C2015 07 14.54324 22 08 55.930-11 35 55.04         21.4 wLEN128F51
         K14Od2G  C2015 07 14.55457 22 08 55.816-11 35 56.24         21.4 wLEN128F51
         K14Od2G  C2015 07 14.56592 22 08 55.713-11 35 56.87         21.4 wLEN128F51
         K14Od2G  C2015 07 14.57730 22 08 55.608-11 35 57.76         21.4 wLEN128F51
    
    Observer details:
    F51 Pan-STARRS 1, Haleakala.  Observers B. Gibson, T. Goggia, N. Primak,
        A. Schultz, M. Willman.  Measurers K. Chambers, S. Chastel, Y.-T. Chen,
        L. Denneau, H. Flewelling, M. Holman, M. Huber, R. Jedicke, M. Lackner,
        E. Lilly, H.-W. Lin, E. Magnier, M. Micheli, M. Payne, P. Veres,
        R. Wainscoat, C. Waters, R. Weryk.  1.8-m Ritchey-Chretien + CCD.
    
    Orbital elements:
    2014 OG392
    Epoch 2016 July 31.0 TT = JDT 2457600.5                 MPC
    M 314.00409              (2000.0)            P               Q
    n   0.02328829     Peri.  254.94483     +0.75012090     -0.65538741
    a  12.1444431      Node   145.86679     +0.65092305     +0.70820140
    e   0.1803853      Incl.    9.04754     +0.11669539     +0.26252259
    P  42.32           H   10.7           G   0.15           U   2
    Residuals in seconds of arc
    130712 F51  0.1-  0.0     140728 F51  0.2-  0.1-    150712 F51  0.0   0.0
    130712 F51  0.1+  0.3+    140728 F51  0.0   0.2+    150712 F51  0.1-  0.0
    130712 F51  0.1+  0.1-    140729 H21  0.1+  0.6-    150712 F51  0.1-  0.0
    130712 F51  0.1-  0.0     140729 H21  0.2-  0.3+    150712 F51  0.2-  0.0
    130712 F51  0.0   0.0     140729 H21  0.4+  0.8+    150714 F51  0.1-  0.2+
    130712 F51  0.0   0.1-    150625 F51  0.0   0.1-    150714 F51  0.1-  0.2-
    130712 F51  0.0   0.1-    150625 F51  0.0   0.1+    150714 F51  0.1+  0.0
    130712 F51  0.0   0.0     150625 F51  0.0   0.0     150714 F51  0.3+  0.1-
    140728 F51  0.1+  0.0     150625 F51  0.0   0.0
    
    Ephemeris:
    2014 OG392               a,e,i = 12.14, 0.18, 9                  q = 9.9538
    Date    TT    R. A. (2000) Decl.     Delta      r     Elong.  Phase     V
    2016 06 15    22 53 22.4 -08 52 19  10.6358 10.9067   102.8     5.2    21.5
    ...
    2016 06 30    22 53 26.3 -08 58 48  10.3925 10.8944   117.2     4.8    21.4
    ...
    2016 07 08    22 52 58.4 -09 05 19  10.2736 10.8879   124.9     4.4    21.3
    ...
    2016 07 14    22 52 24.3 -09 11 30  10.1913 10.8830   130.8     4.1    21.3
    2016 07 15    22 52 17.6 -09 12 38  10.1782 10.8822   131.8     4.0    21.3
    2016 07 16    22 52 10.6 -09 13 48  10.1653 10.8814   132.8     3.9    21.3
    ...
    2016 07 22    22 51 22.7 -09 21 20  10.0921 10.8765   138.7     3.5    21.2
    ...
    2016 07 30    22 50 04.2 -09 32 46  10.0068 10.8700   146.7     2.9    21.2
    ...
    2016 08 14    22 46 59.5 -09 57 27   9.8905 10.8579   161.9     1.7    21.1
    
    A. U. Tomatic                (C) Copyright 2016 MPC           M.P.E.C. 2016-N128
    

    Read MPEC 2016-N127 Read MPEC 2016-N129


    MPEC number:

    Enter an MPEC number in one of the following forms:

    • 1997-B01 (the full form)
    • J97B01 (the packed version of the full form)
    • B01 (the abbreviated form)